Vorticity
4 4 4 4 5 5 5 5 5 6 6 6 6 6 7 7 7 7 7 8 8 8 8 8 8 8 7 7 7 6 6 5 5 4 4 4 3 3 3 3 3 4 4 5 5 5 5 4 4 4 4 4
3 3 3 3 3 3 3 3 3 3 3 3 3 3 4 4 4 4 5 5 5 6 6 7 7 8 8 9 9 10 9 9 9 8 8 7 6 5 4 4 3 3 3 3 4 5 5 5 4 4 4 4
3 3 3 3 3 3 3 3 3 3 3 3 3 3 3 2 2 2 2 2 2 2 3 3 3 3 4 4 5 6 7 8 9 9 10 10 10 10 9 7 6 4 4 3 3 3 4 5 5 4 4 4
3 3 3 3 3 3 3 3 3 3 3 3 3 3 3 3 3 3 3 3 3 3 3 3 2 2 2 2 2 2 3 3 5 5 6 7 8 10 11 11 11 9 7 6 5 4 4 4 5 5 5 5
3 2 3 3 3 3 3 3 3 3 3 3 3 3 3 3 3 3 3 3 3 3 3 4 3 4 3 3 3 2 2 2 2 2 3 3 4 5 6 8 10 11 11 10 9 8 7 5 5 5 5 5
3 3 3 3 3 3 3 3 3 3 3 3 3 3 3 3 3 3 3 3 3 3 3 3 3 3 4 4 4 3 3 3 2 2 2 2 2 2 2 3 5 6 8 9 10 10 10 10 8 7 6 5
4 4 4 4 4 5 4 5 5 5 5 5 5 4 5 4 4 4 3 3 3 3 3 3 3 3 3 3 3 3 3 3 3 3 3 2 2 2 2 1 2 2 4 5 6 7 8 9 10 10 9 8
5 5 6 6 6 6 6 6 6 6 6 6 6 6 6 6 6 6 6 6 5 5 5 4 4 4 4 4 3 3 3 3 3 3 3 3 3 2 2 2 2 2 2 2 3 4 4 5 7 8 9 10
7 7 7 7 7 7 7 7 7 7 7 7 7 7 7 6 6 6 6 6 7 7 7 7 7 7 6 5 5 5 4 4 4 4 4 3 3 3 3 3 2 2 2 2 2 2 2 3 4 5 6 7
6 6 6 6 6 7 7 7 7 7 8 8 8 8 8 8 7 7 7 6 6 6 6 6 7 8 8 8 8 7 7 6 6 5 5 4 4 4 4 3 3 3 2 2 2 2 2 2 2 2 3 4
6 6 6 6 6 6 6 6 6 7 7 7 7 8 7 7 8 8 8 8 8 7 6 6 6 6 6 7 7 8 8 8 8 8 8 7 6 6 5 4 4 4 4 3 3 3 3 2 1 1 2 2
7 7 7 7 7 7 7 7 7 7 7 7 7 8 8 8 8 8 8 8 7 7 7 7 7 7 6 6 6 6 7 7 8 8 8 8 8 8 7 7 6 5 5 5 4 4 4 4 3 2 1 1
11 11 12 12 12 13 13 13 13 13 12 12 12 12 12 12 12 12 12 11 11 10 10 9 8 7 7 7 6 6 6 6 6 6 7 7 8 8 9 9 9 8 7 6 6 5 5 6 6 5 4 3
16 17 17 17 17 17 17 17 17 18 18 18 17 17 16 16 16 15 15 15 15 15 15 15 14 13 12 11 10 9 8 7 6 6 5 5 6 6 7 8 8 9 9 9 8 6 6 6 6 7 7 6
19 19 20 20 20 20 20 20 20 20 20 21 21 21 21 21 21 20 20 19 18 18 17 17 18 18 18 17 17 16 15 13 11 10 9 8 7 6 5 5 6 6 7 9 10 9 8 7 6 6 7 7
21 21 21 21 21 22 22 21 21 21 21 21 22 22 22 23 23 23 24 23 23 23 22 22 21 20 20 20 20 20 19 20 19 18 17 16 14 13 11 9 8 6 5 5 7 8 9 9 8 7 6 6
17 16 16 15 15 15 15 16 15 16 16 16 16 16 17 17 18 19 20 21 21 22 23 23 23 23 23 22 22 22 21 22 22 21 21 21 20 19 18 17 16 14 12 9 7 6 7 8 8 9 9 7
6 5 6 5 5 5 5 6 6 6 7 7 7 7 7 8 8 9 10 12 13 14 16 17 18 20 21 22 22 23 23 23 23 23 23 22 22 22 22 21 21 21 21 19 17 14 11 9 8 7 8 8
3 3 3 3 3 4 4 4 4 4 4 4 4 4 4 4 4 4 4 4 5 5 6 7 8 9 11 13 14 16 18 20 21 22 23 23 22 23 23 23 22 21 21 22 23 23 22 19 16 13 10 8
6 6 7 7 7 7 7 7 7 7 7 7 7 7 6 6 6 5 5 5 4 4 4 3 3 3 4 4 5 6 8 9 11 13 15 18 19 20 22 23 23 23 22 21 21 22 23 24 24 22 20 16
8 8 8 9 9 9 9 9 9 8 8 8 8 8 7 7 7 7 7 7 6 6 6 6 5 5 4 4 3 3 3 3 3 4 5 7 9 11 14 16 18 20 20 21 20 21 21 22 22 23 24 25
8 8 9 9 9 9 9 9 9 9 8 8 9 9 9 9 9 8 8 8 7 7 7 6 6 6 6 6 5 5 4 4 4 3 3 2 3 4 5 6 8 10 12 15 16 17 18 19 19 19 20 23
8 8 8 7 8 7 8 8 8 8 8 9 9 9 9 9 9 9 9 10 9 9 9 8 7 7 7 6 6 6 6 6 6 6 5 5 4 3 3 3 2 2 4 6 9 11 13 16 17 17 17 17
6 6 6 6 7 7 7 7 7 8 8 8 8 8 9 8 8 9 9 9 10 10 10 10 10 9 9 8 8 7 7 7 7 7 7 7 6 5 5 5 5 4 3 2 3 5 8 11 13 15 16 15
5 5 6 6 6 6 6 6 6 6 6 7 8 8 8 8 8 8 8 8 9 9 10 10 10 10 10 9 9 9 8 8 8 7 7 7 7 7 5 5 6 5 4 3 2 2 3 6 10 12 14 16
5 5 5 5 5 5 5 5 5 5 5 6 6 7 7 7 7 7 8 8 8 9 9 9 9 9 10 10 10 10 10 9 9 8 8 8 8 8 7 6 6 6 5 4 4 2 1 2 6 9 11 13
5 5 5 5 5 5 5 6 5 5 5 6 6 7 7 7 7 7 7 8 8 8 9 9 9 9 10 10 10 10 10 10 9 9 9 8 8 8 8 8 8 8 7 6 5 4 4 2 2 5 8 11
6 6 6 5 5 6 7 7 7 6 7 7 7 7 7 7 7 7 7 7 8 8 8 9 9 9 10 9 10 10 9 9 9 8 8 8 8 8 8 7 7 8 8 8 7 6 6 6 4 4 6 9
7 7 7 7 7 7 8 8 8 8 8 7 7 7 7 6 7 7 7 8 8 8 8 8 9 9 10 10 10 9 9 8 8 7 7 7 8 8 8 7 6 7 7 8 9 7 7 7 7 6 7 8
7 7 7 8 8 8 8 8 8 8 8 7 7 7 7 7 7 7 8 9 9 9 9 9 9 9 9 10 10 10 9 9 8 8 8 8 7 7 7 6 6 6 6 6 8 8 7 8 8 8 9 10
7 8 8 8 8 8 8 8 9 9 9 8 8 8 8 8 7 7 8 9 9 9 9 8 9 9 9 10 10 10 9 9 9 8 8 8 8 7 6 6 6 6 5 5 6 7 7 8 9 10 11 10
Height
5797 5797 5796 5796 5796 5795 5795 5794 5794 5793 5793 5793 5793 5793 5793 5793 5792 5792 5792 5792 5791 5791 5791 5792 5792 5792 5792 5792 5793 5793 5793 5793 5793 5794 5795 5795 5795 5794 5794 5794 5795 5795 5796 5796 5797 5797 5798 5799 5800 5800 5801 5802
5792 5791 5791 5791 5790 5790 5789 5789 5788 5788 5787 5787 5786 5786 5786 5786 5786 5785 5785 5785 5785 5784 5784 5784 5785 5785 5785 5786 5786 5786 5786 5787 5787 5788 5788 5789 5789 5789 5789 5789 5789 5790 5790 5791 5791 5792 5792 5793 5794 5795 5796 5797
5787 5786 5786 5786 5785 5785 5784 5784 5783 5782 5782 5781 5781 5780 5780 5780 5779 5779 5779 5778 5778 5778 5777 5777 5777 5777 5778 5778 5778 5779 5779 5780 5780 5780 5781 5782 5783 5783 5783 5783 5783 5783 5784 5785 5785 5786 5786 5787 5788 5789 5790 5791
5782 5781 5781 5780 5780 5780 5779 5779 5778 5777 5777 5776 5776 5775 5775 5774 5774 5773 5773 5772 5772 5771 5771 5771 5770 5770 5771 5771 5771 5771 5772 5772 5773 5773 5774 5775 5775 5776 5777 5777 5777 5777 5777 5778 5779 5779 5780 5781 5782 5782 5783 5784
5777 5776 5776 5775 5775 5774 5774 5773 5772 5772 5771 5771 5770 5769 5769 5768 5768 5767 5767 5766 5766 5765 5765 5765 5764 5764 5764 5764 5764 5764 5764 5765 5765 5766 5766 5767 5768 5769 5769 5770 5770 5770 5770 5771 5772 5772 5773 5773 5774 5775 5776 5777
5771 5771 5770 5769 5769 5768 5768 5767 5766 5766 5765 5764 5764 5763 5763 5762 5761 5761 5760 5759 5759 5759 5758 5758 5758 5758 5757 5757 5757 5757 5757 5757 5757 5758 5758 5759 5759 5760 5761 5762 5763 5763 5763 5764 5764 5765 5766 5766 5767 5768 5769 5770
5765 5764 5764 5763 5762 5762 5761 5760 5760 5759 5758 5757 5757 5756 5755 5755 5754 5753 5753 5752 5752 5751 5751 5750 5750 5750 5750 5750 5750 5749 5750 5750 5750 5750 5751 5751 5751 5752 5753 5754 5755 5755 5756 5756 5757 5758 5758 5759 5760 5760 5761 5762
5758 5758 5757 5756 5755 5755 5754 5753 5752 5751 5751 5750 5749 5748 5747 5747 5746 5745 5745 5744 5743 5743 5742 5742 5742 5741 5741 5741 5741 5741 5741 5741 5742 5742 5743 5743 5743 5744 5744 5745 5746 5746 5747 5748 5748 5749 5750 5751 5752 5753 5753 5754
5752 5751 5750 5749 5748 5747 5747 5746 5745 5744 5743 5742 5741 5741 5740 5739 5738 5737 5736 5736 5735 5734 5734 5733 5733 5733 5733 5733 5732 5732 5732 5732 5732 5732 5733 5734 5734 5735 5736 5736 5737 5738 5738 5739 5739 5740 5741 5742 5743 5744 5745 5746
5745 5744 5743 5742 5741 5740 5739 5738 5737 5736 5735 5734 5733 5732 5732 5731 5730 5729 5728 5727 5727 5726 5725 5725 5724 5724 5724 5724 5723 5723 5723 5723 5723 5723 5723 5723 5724 5725 5726 5727 5728 5729 5729 5730 5730 5731 5731 5732 5733 5734 5735 5737
5739 5738 5736 5735 5734 5732 5731 5730 5729 5728 5727 5726 5725 5724 5723 5722 5721 5720 5720 5719 5718 5717 5716 5716 5715 5715 5715 5714 5714 5714 5714 5713 5713 5713 5713 5714 5714 5714 5715 5716 5717 5718 5719 5720 5721 5722 5722 5722 5723 5724 5725 5726
5732 5731 5730 5729 5727 5726 5724 5723 5722 5720 5719 5718 5717 5715 5714 5713 5713 5712 5711 5710 5709 5708 5707 5706 5706 5705 5705 5704 5704 5704 5704 5704 5703 5703 5704 5704 5704 5704 5705 5705 5706 5707 5708 5709 5711 5712 5713 5713 5714 5714 5714 5716
5726 5725 5723 5722 5721 5719 5718 5716 5715 5713 5712 5710 5709 5708 5706 5705 5704 5703 5702 5701 5700 5699 5698 5697 5696 5696 5695 5694 5694 5693 5693 5693 5693 5693 5693 5693 5694 5694 5695 5695 5695 5696 5696 5697 5699 5700 5701 5702 5704 5704 5704 5705
5720 5718 5717 5715 5714 5712 5711 5709 5708 5706 5705 5703 5702 5700 5699 5697 5696 5695 5693 5692 5691 5690 5689 5688 5687 5686 5685 5684 5684 5683 5683 5682 5682 5682 5682 5683 5683 5683 5684 5684 5685 5685 5686 5686 5687 5688 5689 5690 5692 5693 5694 5695
5714 5712 5711 5709 5707 5706 5704 5703 5701 5699 5698 5696 5694 5693 5691 5690 5688 5687 5685 5684 5683 5681 5680 5679 5678 5677 5676 5675 5674 5673 5672 5672 5672 5671 5672 5672 5672 5672 5672 5672 5673 5674 5675 5675 5675 5676 5677 5678 5679 5680 5681 5683
5708 5706 5705 5703 5701 5700 5698 5696 5694 5693 5691 5689 5687 5686 5684 5682 5681 5679 5677 5676 5675 5674 5672 5671 5669 5668 5667 5665 5664 5663 5662 5662 5662 5661 5661 5660 5660 5660 5661 5661 5661 5662 5663 5663 5664 5664 5665 5665 5666 5667 5668 5670
5703 5701 5699 5698 5696 5694 5692 5691 5689 5687 5685 5683 5681 5679 5678 5676 5674 5672 5670 5669 5668 5666 5665 5663 5662 5660 5659 5657 5656 5654 5653 5653 5652 5651 5650 5650 5649 5649 5649 5649 5650 5650 5651 5651 5652 5652 5652 5653 5653 5654 5655 5656
5697 5696 5694 5692 5691 5689 5687 5685 5683 5681 5679 5677 5675 5674 5672 5670 5668 5666 5664 5662 5661 5659 5658 5656 5654 5652 5651 5649 5647 5646 5645 5644 5643 5642 5640 5640 5639 5638 5638 5638 5638 5638 5639 5639 5640 5640 5640 5640 5641 5641 5642 5643
5692 5690 5688 5686 5685 5683 5681 5679 5677 5675 5673 5671 5669 5667 5665 5663 5661 5659 5658 5656 5654 5653 5651 5649 5647 5645 5643 5642 5640 5638 5637 5635 5634 5633 5631 5630 5630 5629 5628 5627 5627 5627 5627 5627 5628 5627 5627 5627 5628 5629 5629 5629
5686 5684 5682 5680 5679 5677 5675 5673 5670 5668 5666 5664 5662 5660 5658 5656 5655 5653 5651 5649 5648 5646 5644 5642 5640 5638 5636 5634 5633 5631 5629 5628 5626 5625 5623 5621 5620 5620 5618 5617 5617 5617 5616 5616 5616 5615 5614 5614 5615 5615 5615 5615
5681 5679 5677 5675 5673 5671 5669 5666 5664 5662 5660 5657 5655 5653 5651 5649 5647 5645 5644 5642 5640 5638 5636 5634 5632 5631 5629 5627 5625 5623 5622 5620 5618 5617 5615 5613 5612 5611 5610 5609 5608 5607 5607 5606 5605 5604 5603 5602 5602 5602 5602 5602
5675 5673 5671 5669 5666 5664 5662 5660 5658 5656 5653 5651 5649 5646 5644 5642 5640 5638 5636 5634 5632 5630 5628 5626 5624 5622 5620 5619 5617 5615 5613 5611 5610 5608 5606 5605 5603 5602 5600 5599 5599 5598 5598 5597 5596 5595 5593 5592 5591 5590 5589 5589
5668 5666 5664 5662 5660 5657 5655 5653 5651 5648 5646 5644 5642 5639 5637 5634 5632 5630 5629 5627 5624 5622 5620 5618 5616 5613 5611 5609 5607 5606 5604 5602 5600 5598 5597 5595 5593 5592 5590 5589 5589 5588 5588 5587 5586 5585 5583 5581 5580 5579 5578 5578
5661 5659 5657 5654 5652 5650 5647 5645 5643 5640 5638 5636 5634 5631 5629 5626 5624 5622 5620 5618 5616 5614 5611 5609 5607 5604 5602 5600 5598 5596 5594 5592 5590 5588 5587 5585 5583 5582 5579 5577 5577 5576 5576 5577 5576 5575 5573 5571 5570 5569 5568 5567
5654 5651 5649 5647 5644 5642 5640 5637 5635 5633 5630 5628 5626 5623 5620 5618 5615 5613 5611 5609 5607 5605 5602 5600 5598 5595 5593 5591 5588 5586 5584 5582 5580 5578 5576 5574 5572 5571 5569 5566 5565 5564 5563 5563 5563 5564 5563 5560 5557 5557 5557 5556
5647 5644 5642 5640 5637 5635 5633 5630 5628 5626 5623 5621 5618 5615 5612 5610 5607 5605 5602 5600 5598 5596 5593 5591 5588 5586 5583 5581 5579 5577 5575 5572 5570 5568 5566 5564 5562 5560 5558 5555 5553 5551 5551 5550 5550 5550 5551 5550 5546 5545 5545 5543
5640 5638 5635 5633 5630 5628 5626 5623 5620 5618 5616 5613 5610 5607 5604 5601 5599 5596 5594 5591 5589 5587 5584 5581 5579 5576 5573 5571 5569 5567 5564 5562 5560 5558 5555 5553 5551 5549 5547 5545 5541 5539 5538 5537 5536 5535 5535 5536 5535 5534 5534 5532
5634 5631 5628 5626 5623 5620 5618 5615 5613 5610 5608 5605 5602 5599 5596 5593 5590 5588 5585 5582 5580 5577 5575 5572 5569 5566 5564 5561 5558 5556 5554 5551 5549 5547 5545 5542 5540 5538 5536 5534 5531 5528 5526 5524 5523 5522 5520 5520 5520 5520 5521 5520
5627 5624 5621 5618 5616 5613 5610 5607 5604 5602 5599 5596 5593 5590 5588 5585 5582 5579 5576 5573 5571 5568 5565 5562 5559 5556 5553 5550 5547 5546 5543 5540 5538 5536 5534 5532 5529 5526 5524 5523 5520 5517 5515 5512 5510 5509 5507 5505 5505 5505 5505 5505
5620 5617 5614 5611 5608 5605 5602 5599 5596 5594 5591 5588 5584 5581 5579 5576 5573 5570 5567 5564 5561 5558 5555 5552 5549 5546 5543 5540 5537 5535 5532 5529 5527 5525 5522 5520 5518 5515 5512 5510 5509 5506 5503 5500 5496 5495 5493 5490 5489 5490 5490 5488
5613 5610 5607 5604 5601 5598 5594 5591 5588 5585 5583 5579 5576 5573 5570 5567 5564 5561 5557 5554 5551 5548 5545 5543 5539 5536 5533 5529 5526 5524 5522 5519 5517 5514 5511 5509 5506 5503 5500 5497 5496 5493 5490 5487 5483 5480 5478 5476 5473 5472 5472 5471